Date,TemperatureHighF,TemperatureAvgF,TemperatureLowF,DewpointHighF,DewpointAvgF,DewpointLowF,HumidityHigh,HumidityAvg,HumidityLow,PressureMaxIn,PressureMinIn,WindSpeedMaxMPH,WindSpeedAvgMPH,GustSpeedMaxMPH,PrecipitationSumIn
2013-1-1,32.2,32.2,32.2,25.2,25.2,25.2,75,75,75,30.25,30.00,0,0,0,0.00
2013-1-2,32.2,32.2,32.2,25.2,25.2,25.2,75,75,75,30.29,30.08,0,0,0,0.00
2013-1-3,32.2,28.6,22.9,25.2,23.1,17.7,86,80,75,30.55,30.12,7,0,7,0.00
2013-1-4,31.4,28.1,25.4,22.5,21.3,20.6,86,76,65,30.50,30.08,15,3,15,0.00
2013-1-5,30.6,30.6,30.6,20.6,20.6,20.6,66,66,66,30.56,30.19,8,8,8,0.00
2013-1-6,30.6,30.6,30.6,20.6,20.6,20.6,66,66,66,30.22,30.00,8,8,8,0.00
2013-1-7,32.9,31.1,25.3,28.0,24.3,20.6,87,76,66,30.85,30.22,8,3,8,0.00
2013-1-8,41.6,35.4,17.6,29.9,27.9,13.0,97,75,57,30.82,30.36,9,0,9,0.09
2013-1-9,46.4,42.0,39.5,38.3,32.5,29.8,87,69,65,30.61,30.19,15,3,15,0.17
2013-1-10,45.1,35.4,0.0,34.8,28.2,0.0,97,61,67,31.08,30.56,9,4,9,0.03
2013-1-11,45.0,40.2,38.8,39.2,35.6,31.9,92,84,74,30.67,30.01,5,0,5,0.08
2013-1-12,40.9,40.9,40.9,38.8,38.8,38.8,92,92,92,30.26,30.07,1,1,1,0.00
2013-1-13,65.0,52.0,40.9,59.0,48.2,36.8,92,87,80,30.08,29.84,9,1,9,0.00
2013-1-14,64.8,64.8,64.8,58.8,58.8,58.8,81,81,81,30.52,29.85,0,0,0,0.00
2013-1-15,64.8,38.8,0.0,58.8,33.1,-6.3,81,59,67,30.79,30.26,4,0,4,0.00
2013-1-16,30.5,30.5,30.5,21.2,21.2,21.2,68,68,68,30.47,29.88,1,1,1,0.00
2013-1-17,30.5,30.5,30.5,21.2,21.2,21.2,68,68,68,30.23,30.00,1,1,1,0.00
2013-1-18,30.5,26.8,16.7,21.2,16.9,11.0,81,66,60,30.97,30.23,7,1,9,0.00
2013-1-19,48.2,39.0,26.5,33.4,25.8,15.3,68,59,55,30.55,29.85,14,1,14,0.02
2013-1-20,47.3,47.3,47.3,32.0,32.0,32.0,55,55,55,30.18,29.63,2,2,2,0.00
2013-1-21,47.3,47.3,47.3,32.0,32.0,32.0,55,55,55,30.15,29.91,2,2,2,0.00
2013-1-22,47.3,26.7,5.9,32.0,16.7,-0.4,84,68,55,30.75,29.98,15,2,15,0.00
2013-1-23,13.8,9.7,5.5,6.8,4.4,1.3,85,79,68,30.84,30.16,13,1,13,0.00
2013-1-24,17.7,12.1,-5.5,12.4,6.7,-8.8,91,79,69,31.24,30.22,12,1,12,0.00
2013-1-25,13.0,13.0,13.0,7.4,7.4,7.4,78,78,78,31.02,30.08,1,1,1,0.00
2013-1-26,25.1,15.3,13.0,20.3,10.1,7.4,91,79,77,30.86,30.12,5,1,5,0.01
2013-1-27,30.9,26.7,23.6,23.4,20.6,19.8,85,78,67,30.95,30.46,5,0,5,0.00
2013-1-28,29.9,29.9,29.9,21.0,21.0,21.0,69,69,69,30.71,30.00,0,0,0,0.00
2013-1-29,29.9,29.9,29.9,21.0,21.0,21.0,69,69,69,30.12,29.83,0,0,0,0.00
2013-1-30,29.9,29.9,29.9,21.0,21.0,21.0,69,69,69,29.84,29.12,0,0,0,0.00
2013-1-31,29.9,25.9,21.0,21.5,19.1,16.2,88,75,69,30.11,29.12,24,4,24,0.00
2013-2-1,21.6,19.2,16.2,16.7,14.7,11.1,88,83,73,30.69,29.88,21,6,21,0.00
2013-2-2,16.2,16.2,16.2,13.0,13.0,13.0,87,87,87,30.69,30.00,2,2,2,0.00
2013-2-3,26.9,19.1,16.2,21.8,14.9,13.0,90,84,77,30.25,29.86,11,3,11,0.00
2013-2-4,23.5,21.2,19.7,18.8,16.4,14.5,83,81,79,30.42,29.92,13,4,13,0.00
2013-2-5,29.2,25.0,15.0,23.6,20.9,13.4,94,84,77,30.38,29.88,7,0,7,0.00
2013-2-6,28.8,27.0,25.2,23.6,20.1,16.4,86,75,63,30.77,30.06,10,0,10,0.00
2013-2-7,41.9,33.0,17.8,29.9,22.8,15.9,93,66,58,30.82,30.14,8,0,8,0.06
2013-2-8,38.6,38.6,38.6,27.9,27.9,27.9,65,65,65,30.27,29.79,0,0,0,0.00
2013-2-9,38.6,30.6,17.7,27.9,21.6,13.5,84,69,65,30.89,30.19,9,0,9,0.01
2013-2-10,45.9,33.7,9.0,31.0,21.3,0.9,93,62,42,30.95,30.14,10,0,10,0.00
2013-2-11,48.1,44.6,42.5,46.7,35.6,25.7,100,73,51,30.23,29.69,15,2,15,0.00
2013-2-12,46.1,46.1,46.1,43.6,43.6,43.6,91,91,91,30.09,29.93,3,3,3,0.00
2013-2-13,46.1,41.4,33.3,43.6,33.9,25.6,91,75,58,30.10,29.74,9,1,9,0.00
2013-2-14,38.2,29.4,0.0,32.9,23.3,0.0,94,60,64,30.20,29.88,7,0,8,0.01
2013-2-15,35.7,33.8,32.9,32.6,30.4,26.0,94,87,70,30.36,29.96,10,1,10,0.02
2013-2-16,33.0,27.6,20.2,29.0,19.0,11.0,85,70,53,30.47,30.03,12,2,12,0.00
2013-2-17,23.4,19.0,13.7,13.8,11.0,2.0,92,71,59,30.66,29.98,15,2,15,0.00
2013-2-18,37.7,25.5,2.1,21.0,14.8,-0.6,94,66,45,30.93,30.05,10,1,10,0.03
2013-2-19,40.7,36.1,35.8,38.9,24.9,19.9,94,65,52,30.23,29.62,15,2,15,0.00
2013-2-20,36.1,25.4,18.0,30.8,20.2,12.1,86,80,72,30.57,29.89,18,3,18,0.00
2013-2-21,24.7,20.0,18.0,15.9,13.7,12.0,81,76,68,30.80,30.21,11,1,11,0.01
2013-2-22,21.3,21.3,21.3,14.0,14.0,14.0,73,73,73,30.79,30.09,1,1,1,0.00
2013-2-23,37.9,28.7,21.3,34.5,23.0,14.0,92,79,73,30.17,29.92,4,1,4,0.03
2013-2-24,37.0,31.8,27.4,33.2,26.5,20.6,86,81,73,30.48,29.93,15,1,15,0.00
2013-2-25,36.6,31.6,28.3,26.7,24.0,22.6,79,74,64,30.57,30.24,5,0,5,0.00
2013-2-26,39.8,36.1,32.9,30.6,28.0,23.2,79,72,65,30.48,29.80,19,2,19,0.01
2013-2-27,36.3,36.3,36.3,30.4,30.4,30.4,79,79,79,29.84,29.59,3,3,3,0.00
2013-2-28,36.3,36.3,36.3,30.4,30.4,30.4,79,79,79,29.81,29.59,3,3,3,0.00
2013-3-1,36.3,36.3,36.3,30.4,30.4,30.4,79,79,79,30.02,29.81,3,3,3,0.00
2013-3-2,36.3,29.6,22.7,30.4,24.7,19.2,88,82,78,30.32,29.95,8,2,8,0.00
2013-3-3,27.5,23.7,22.7,20.6,19.6,19.0,88,84,74,30.29,29.92,16,2,16,0.00
2013-3-4,24.6,24.6,24.6,19.0,19.0,19.0,79,79,79,30.36,30.01,5,5,5,0.00
2013-3-5,41.1,31.6,24.6,29.9,24.0,19.0,84,73,62,30.43,29.89,6,2,6,0.03
2013-3-6,41.2,39.0,30.6,30.1,28.9,20.5,85,67,62,30.42,29.91,9,0,9,0.01
2013-3-7,39.7,37.4,34.5,33.7,30.3,28.9,91,76,65,30.57,30.22,5,0,8,0.00
2013-3-8,40.5,36.4,32.4,31.3,28.9,26.3,91,75,59,30.76,30.38,17,1,17,0.15
2013-3-9,53.7,43.0,23.6,35.3,30.2,14.6,97,62,38,30.89,30.34,5,0,5,0.00
2013-3-10,65.9,55.7,45.6,38.8,34.6,27.6,54,45,35,30.42,30.06,11,1,11,0.00
2013-3-11,60.7,58.0,55.2,38.1,35.4,32.0,48,43,39,30.15,29.74,16,2,16,0.00
2013-3-12,55.2,44.9,36.5,37.2,34.1,19.4,97,69,48,30.20,29.78,13,1,13,0.00
2013-3-13,36.5,28.2,0.0,31.8,23.6,0.0,89,68,71,30.34,29.93,17,2,17,0.03
2013-3-14,32.3,23.2,0.0,21.3,16.4,0.0,83,59,57,30.54,30.12,18,2,20,0.02
2013-3-15,26.9,26.9,26.9,18.1,18.1,18.1,69,69,69,30.44,29.88,2,2,2,0.00
2013-3-16,33.5,29.2,26.9,30.3,22.8,18.1,92,77,69,30.28,29.80,6,1,6,0.04
2013-3-17,33.8,30.8,25.8,26.0,22.6,18.4,93,72,56,30.65,30.16,11,1,11,0.01
2013-3-18,30.5,30.5,30.5,19.4,19.4,19.4,63,63,63,30.61,29.75,1,1,1,0.00
2013-3-19,36.0,30.3,27.2,31.8,22.8,19.4,89,74,63,30.18,29.72,15,3,17,0.10
2013-3-20,32.1,27.8,23.8,27.0,22.3,18.9,92,80,74,30.28,29.91,18,3,18,0.02
2013-3-21,27.2,24.8,16.6,22.5,19.2,13.7,95,79,63,30.25,29.82,11,1,11,0.00
2013-3-22,29.6,26.1,24.8,23.3,22.2,21.8,89,85,76,30.34,29.89,14,2,14,0.00
2013-3-23,36.8,30.7,26.6,27.5,23.9,22.1,83,76,64,30.37,30.03,11,1,11,0.02
2013-3-24,41.0,35.1,21.7,25.6,24.4,20.4,95,65,52,30.41,29.69,9,0,9,0.09
2013-3-25,37.9,36.6,34.8,33.4,28.0,23.7,88,72,60,29.91,29.57,9,0,9,0.03
2013-3-26,45.2,38.3,34.8,32.8,31.2,29.2,87,76,56,30.24,29.79,16,1,16,0.00
2013-3-27,40.4,37.7,34.4,31.8,30.3,28.8,90,75,68,30.42,30.10,10,3,12,0.00
2013-3-28,40.4,36.5,35.6,34.8,31.4,29.1,91,82,77,30.54,30.20,10,5,10,0.05
2013-3-29,46.5,40.5,36.1,37.5,31.6,27.6,89,72,50,30.53,30.28,12,1,13,0.00
2013-3-30,51.4,43.2,24.7,32.0,28.6,9.4,96,57,41,30.68,30.33,11,1,11,0.00
2013-4-4,0.0,0.0,0.0,0.0,0.0,0.0,0,0,100,30.26,30.19,0,0,0,0.00
2013-4-5,46.9,26.5,0.0,33.6,13.2,0.0,84,27,51,30.43,30.02,10,1,16,0.00
2013-4-6,54.1,41.5,20.7,24.0,12.8,0.0,93,27,26,30.76,30.26,8,1,11,0.16
2013-4-7,70.4,58.8,51.7,50.8,36.9,21.0,65,46,30,30.28,29.79,19,4,19,0.00
2013-4-8,70.2,61.5,32.2,51.5,47.0,21.5,98,60,40,30.46,29.87,8,3,9,0.00
2013-4-9,75.3,68.0,48.3,55.4,51.1,32.1,83,55,44,30.33,29.89,11,0,11,0.00
2013-4-10,71.6,32.0,0.0,54.1,24.2,0.0,54,24,54,30.06,29.87,0,0,0,0.00
2013-4-11,0.0,0.0,0.0,0.0,0.0,0.0,0,0,100,30.11,29.82,0,0,0,0.00
2013-4-12,0.0,0.0,0.0,0.0,0.0,0.0,0,0,100,29.90,29.56,0,0,0,0.00
2013-4-13,0.0,0.0,0.0,0.0,0.0,0.0,0,0,100,30.08,29.88,0,0,0,0.00
2013-4-14,48.9,29.6,0.0,38.9,23.6,0.0,95,45,62,30.42,30.08,11,1,11,0.01
2013-4-15,72.8,58.9,48.5,53.3,46.2,38.4,69,63,47,30.32,30.03,16,1,16,0.00
2013-4-16,61.8,58.9,56.8,52.8,52.1,46.3,85,79,68,30.35,30.08,7,2,7,0.00
2013-4-17,66.6,58.9,41.1,52.6,45.6,36.5,91,64,43,30.61,30.25,11,1,11,0.00
2013-4-18,79.6,69.9,60.9,65.2,55.7,43.2,82,61,48,30.25,29.71,16,1,16,0.00
2013-4-19,71.7,63.7,0.0,61.8,57.3,0.0,95,74,71,29.83,29.41,17,2,17,0.10
2013-4-20,39.6,24.7,0.0,32.4,17.9,-6.0,84,45,59,30.74,29.83,27,2,27,0.01
2013-4-21,53.1,41.9,25.8,31.6,26.3,14.0,96,55,36,31.07,30.69,9,0,9,0.00
2013-4-22,63.2,54.0,31.1,40.2,32.3,28.8,94,44,34,30.91,30.41,6,1,11,0.00
2013-4-23,71.3,60.5,38.0,44.4,37.0,14.4,77,43,32,30.60,30.02,10,1,10,0.00
2013-4-24,65.4,61.1,50.4,56.4,48.6,25.1,95,69,37,30.20,29.72,12,1,12,0.17
2013-4-25,59.0,52.7,34.3,55.8,41.0,30.8,93,66,43,30.58,30.20,17,4,17,0.00
2013-4-26,58.7,52.4,36.2,42.6,34.5,19.3,100,51,39,30.84,30.52,10,3,10,0.00
2013-4-27,73.8,55.8,30.2,43.8,36.5,11.6,97,50,27,30.83,30.21,7,0,7,0.00
2013-4-28,68.9,60.4,43.9,50.6,46.9,20.6,95,65,39,30.41,30.05,24,1,24,0.06
2013-4-29,52.2,52.2,52.2,50.0,50.0,50.0,92,92,92,30.16,30.05,0,0,0,0.00
2013-4-30,71.9,61.1,52.2,58.9,53.5,50.0,93,77,58,30.31,30.15,14,1,14,0.00
2013-5-1,80.0,69.8,52.2,57.0,51.9,46.7,94,55,35,30.52,30.23,11,1,11,0.00
2013-5-2,79.3,72.3,42.9,47.5,42.0,17.8,91,35,21,30.70,30.22,11,1,11,0.00
2013-5-3,77.5,72.1,45.1,52.3,44.4,10.4,94,39,24,30.56,30.15,16,1,16,0.00
2013-5-4,76.2,70.0,46.8,49.5,46.2,39.1,84,43,30,30.51,30.09,13,1,13,0.00
2013-5-5,77.6,70.0,39.4,49.0,41.6,17.9,98,39,20,30.51,30.02,14,1,14,0.00
2013-5-6,77.8,69.2,39.1,54.8,42.7,5.2,97,41,24,30.36,29.95,8,0,8,0.00
2013-5-7,78.2,71.2,45.1,57.9,51.8,27.5,99,52,37,30.33,29.90,13,0,13,0.00
2013-5-8,73.5,67.3,54.4,59.2,54.8,32.9,97,67,44,30.17,29.95,7,0,7,0.00
2013-5-9,72.8,66.1,60.4,60.5,56.8,52.1,97,73,52,30.11,29.92,14,1,14,0.01
2013-5-10,74.5,70.4,61.3,63.8,57.4,45.2,93,64,59,30.07,29.75,9,0,10,0.00
2013-5-11,72.8,63.5,49.7,61.6,55.4,46.8,91,75,68,29.96,29.66,7,2,7,0.00
2013-5-12,53.4,47.4,34.4,48.4,38.0,29.4,95,70,53,30.25,29.84,18,2,18,0.00
2013-5-13,45.0,45.0,45.0,31.5,31.5,31.5,59,59,59,30.30,30.12,3,3,3,0.00
2013-5-14,53.5,47.5,30.5,42.4,36.0,29.6,97,65,47,30.57,30.07,9,1,9,0.00
2013-5-15,49.2,49.2,49.2,40.9,40.9,40.9,73,73,73,30.08,30.00,0,0,0,0.00
2013-5-16,77.5,70.9,48.4,58.6,50.4,43.8,99,50,34,30.05,29.69,17,1,17,0.00
2013-5-17,74.3,66.1,39.8,52.5,46.6,39.0,98,51,34,30.37,29.99,7,1,10,0.00
2013-5-18,77.1,70.3,64.6,59.5,53.1,49.3,67,55,48,30.33,30.06,6,0,10,0.00
2013-5-19,79.8,73.8,64.7,67.6,61.4,57.2,88,66,58,30.28,29.95,5,0,12,0.00
2013-5-20,87.6,75.1,59.0,71.6,65.8,58.4,99,73,53,30.12,29.75,6,0,7,0.00
2013-5-21,87.8,82.4,67.1,73.3,68.5,53.1,100,64,49,30.06,29.63,11,0,11,0.00
2013-5-22,85.9,79.3,65.9,71.7,68.0,64.4,100,70,55,29.97,29.58,12,0,12,0.02
2013-5-23,73.2,68.8,63.7,69.4,65.5,60.4,98,89,73,29.91,29.64,9,0,10,0.16
2013-5-24,63.7,51.0,39.9,61.6,47.2,36.3,93,87,75,30.52,29.90,14,0,14,0.00
2013-5-25,57.6,49.7,34.4,42.7,39.0,28.3,99,68,50,30.62,30.34,18,1,18,0.01
2013-5-26,62.3,55.7,35.6,45.2,39.8,23.0,99,56,40,30.58,30.33,15,1,15,0.00
2013-5-27,71.2,61.5,34.5,49.6,43.5,18.1,97,53,36,30.58,30.16,7,0,7,0.00
2013-5-28,73.2,67.3,58.0,68.5,55.7,39.4,100,69,50,30.25,29.94,5,0,5,0.00
2013-6-12,86.1,55.1,0.0,0.0,0.0,0.0,0,0,100,30.01,29.74,3,0,6,0.01
2013-6-13,70.3,64.8,55.4,65.1,0.3,0.0,100,0,100,29.88,29.44,6,1,14,1.40
2013-6-14,76.3,59.4,0.0,0.0,0.0,0.0,0,0,100,30.05,29.86,11,0,11,0.00
2013-6-15,79.2,74.4,71.5,0.0,0.0,0.0,0,0,100,30.22,29.96,11,0,11,0.00
2013-6-16,80.1,76.5,71.1,0.0,0.0,0.0,0,0,100,30.01,29.73,11,0,11,0.00
2013-6-17,90.3,77.2,61.8,0.0,0.0,0.0,0,0,100,29.91,29.78,9,0,9,0.00
2013-6-18,73.7,67.5,59.0,64.8,43.4,0.0,100,55,67,30.04,29.82,12,1,12,0.00
2013-6-19,73.5,66.7,46.4,58.0,54.1,45.6,98,65,48,30.35,30.03,12,1,12,0.00
2013-6-20,81.4,70.5,43.1,63.6,56.3,30.1,98,62,43,30.43,30.14,5,0,5,0.00
2013-6-21,73.4,71.7,49.7,62.6,61.7,49.3,99,71,69,30.38,30.21,0,0,0,0.00
2013-6-22,85.9,78.5,61.0,73.3,37.1,0.0,100,38,57,30.27,29.96,3,0,6,0.00
2013-6-23,89.0,79.6,72.4,75.9,22.0,0.0,96,22,53,30.27,29.90,7,0,7,0.00
2013-6-24,87.8,81.9,68.0,73.3,70.9,66.7,100,70,52,30.13,29.85,7,0,7,0.00
2013-6-25,85.3,80.5,68.6,74.7,72.0,68.1,100,76,64,29.99,29.72,4,0,6,0.00
2013-6-26,82.4,78.9,71.7,74.5,72.4,64.0,93,81,75,30.00,29.73,4,0,4,0.00
2013-6-27,77.6,77.6,77.6,72.0,72.0,72.0,83,83,83,29.87,29.71,0,0,0,0.00
2013-6-28,77.6,73.1,66.8,72.0,68.2,61.5,100,85,82,29.74,29.45,5,0,5,0.00
2013-6-29,70.3,70.3,70.3,65.2,65.2,65.2,84,84,84,29.80,29.51,0,0,0,0.00
2013-6-30,88.0,77.9,70.3,82.0,72.7,65.2,84,84,84,30.00,29.66,6,0,6,0.00
2013-7-1,84.1,84.1,84.1,78.8,78.8,78.8,84,84,84,30.14,29.77,0,0,0,0.00
2013-7-2,89.9,84.2,66.3,84.4,78.8,61.3,84,84,84,30.19,29.89,4,0,4,0.00
2013-7-3,98.2,89.9,83.0,92.1,84.4,77.3,84,84,84,30.29,29.96,6,0,9,0.00
2013-7-4,89.7,83.7,67.3,84.2,78.4,62.3,84,84,84,30.36,30.00,5,0,5,0.00
2013-7-5,85.7,80.6,78.6,79.9,75.3,58.8,84,84,84,30.29,30.08,4,0,4,0.00
2013-7-25,75.5,71.4,69.7,65.0,24.7,0.0,85,25,53,30.24,29.95,2,0,4,0.00
2013-7-26,81.2,72.4,53.7,66.9,29.3,0.0,100,32,50,30.29,29.92,3,0,4,0.00
2013-7-27,73.8,70.7,56.9,69.3,30.1,0.0,100,42,81,30.09,29.84,4,0,4,0.48
2013-7-28,73.6,63.8,0.0,66.6,58.2,0.0,100,74,61,30.08,29.81,9,1,9,0.01
2013-7-29,71.5,67.0,56.4,60.8,57.7,54.7,100,72,63,30.27,30.01,6,0,7,0.00
2013-7-30,74.3,68.9,55.3,63.5,60.1,55.3,100,74,62,30.40,30.17,5,0,6,0.00
2013-7-31,70.1,70.1,70.1,61.8,61.8,61.8,75,75,75,30.24,30.17,0,0,0,0.00
2013-8-2,74.6,72.4,61.9,64.1,29.9,0.0,87,32,61,30.13,29.86,4,0,9,0.00
2013-8-3,75.6,70.7,60.7,66.5,31.2,0.0,100,37,52,30.05,29.86,6,0,11,0.00
2013-8-4,71.7,66.4,52.8,60.9,23.0,0.0,100,33,61,30.23,29.98,14,0,14,0.00
2013-8-5,71.3,66.5,52.9,61.6,57.7,52.2,100,74,54,30.32,30.07,5,0,7,0.00
2013-8-6,79.0,70.9,53.7,64.3,61.0,48.6,100,72,52,30.21,29.91,5,0,6,0.00
2013-8-7,80.2,75.0,68.0,72.9,67.2,56.1,95,77,67,30.12,29.84,4,0,4,0.00
2013-8-8,81.1,76.0,70.9,75.4,71.1,67.4,100,85,81,30.10,29.83,4,0,4,0.00
2013-8-9,78.7,75.9,70.0,73.8,70.1,62.5,99,83,63,30.11,29.81,8,0,8,0.00
2013-8-10,75.8,71.1,56.8,65.0,60.8,50.0,100,71,52,30.24,30.02,7,0,9,0.00
2013-8-11,76.1,69.7,51.6,63.4,60.0,51.2,100,72,55,30.34,30.05,10,0,10,0.00
2013-8-12,74.9,69.0,56.9,67.7,64.6,49.8,100,87,70,30.21,29.86,3,0,3,0.29
2013-8-13,67.8,65.4,61.1,67.7,61.8,53.4,100,89,69,30.06,29.80,12,0,12,0.00
2013-8-14,66.2,61.9,54.2,56.2,53.9,46.7,99,75,62,30.28,29.97,12,1,12,0.00
2013-8-15,70.3,57.7,0.0,60.2,49.9,0.0,100,66,66,30.40,30.13,5,0,5,0.00
2013-8-16,72.8,68.3,52.1,60.7,57.8,43.9,100,70,47,30.39,30.18,5,0,5,0.00
2013-8-17,75.7,70.5,52.3,65.1,61.5,43.3,100,74,57,30.50,30.23,5,0,5,0.00
2013-8-18,74.5,70.8,62.5,67.0,64.4,62.3,100,80,70,30.41,30.16,6,0,6,0.00
2013-8-19,76.0,71.7,67.0,70.2,67.1,61.9,96,85,77,30.29,30.02,5,0,5,0.00
2013-8-20,80.5,74.2,58.0,70.2,67.4,54.4,100,80,61,30.33,30.06,4,0,5,0.00
2013-8-21,82.0,75.8,58.7,71.9,67.9,51.7,100,77,57,30.36,30.00,4,0,4,0.00
2013-8-22,81.0,75.9,62.9,74.7,70.4,57.2,100,83,71,30.19,29.86,7,0,7,0.02
2013-8-23,77.7,73.5,63.6,69.8,63.4,56.0,100,72,48,30.26,29.97,11,0,11,0.00
2013-8-24,77.5,70.5,49.7,62.4,58.6,49.4,100,67,47,30.57,30.22,5,0,5,0.00
2013-8-25,79.1,72.8,56.3,66.2,63.1,47.5,100,72,56,30.56,30.20,5,0,5,0.00
2013-8-26,82.2,75.8,64.3,72.0,67.7,55.8,100,76,64,30.33,29.91,10,0,10,0.00
2013-8-31,80.2,78.1,77.3,75.2,31.1,0.0,87,35,80,29.94,29.69,3,0,6,0.00
2013-9-1,81.8,78.3,72.3,75.7,19.1,0.0,95,22,76,29.95,29.65,2,0,4,0.00
2013-9-2,79.3,78.3,70.3,74.8,20.4,0.0,100,25,81,29.93,29.65,14,2,14,0.04
2013-9-3,78.1,68.1,59.9,72.5,64.9,54.7,100,90,83,30.11,29.77,14,5,14,0.00
2013-9-4,74.2,67.2,56.4,63.9,61.5,56.0,100,83,61,30.22,29.98,7,0,7,0.00
2013-9-5,71.8,66.7,56.7,62.7,56.0,48.2,96,69,54,30.35,30.02,14,0,14,0.00
2013-9-6,67.0,63.1,44.1,57.0,50.6,32.2,99,64,42,30.59,30.22,6,0,6,0.00
2013-9-7,72.3,66.7,49.6,63.6,58.6,40.1,100,75,64,30.31,29.97,4,0,4,0.00
2013-9-8,70.8,64.2,57.5,63.9,61.1,56.4,100,91,78,30.22,29.92,10,0,10,0.00
2013-9-9,70.9,63.2,46.1,70.9,63.2,45.9,100,100,100,30.39,30.07,4,0,4,0.00
2013-9-10,71.3,67.0,59.6,71.1,67.0,59.2,100,100,100,30.18,30.03,6,0,6,0.00
2013-9-11,76.5,60.2,0.0,68.1,32.4,0.0,100,48,100,30.26,29.98,5,0,5,0.00
2013-9-12,65.6,61.8,57.5,0.0,0.0,0.0,0,0,100,30.03,29.85,6,0,6,0.00
2013-9-13,62.1,58.7,53.9,58.5,35.2,0.0,93,56,87,30.15,29.89,10,0,10,0.00
2013-9-14,66.4,59.7,50.5,59.0,54.0,45.3,88,82,76,30.33,30.13,10,0,10,0.00
2013-9-15,69.8,63.0,42.7,69.8,60.2,35.8,100,91,77,30.49,30.13,3,0,3,0.00
2013-9-16,66.0,60.4,57.7,65.8,60.1,57.1,100,99,98,30.50,30.13,2,0,2,0.00
2013-9-17,68.1,59.8,42.3,57.1,51.5,39.8,100,77,49,30.77,30.38,8,0,9,0.00
2013-9-18,70.8,62.8,42.5,70.0,56.8,27.7,100,83,57,30.57,30.19,4,0,4,0.00
2013-9-19,70.1,63.7,51.4,69.6,63.6,51.0,100,100,99,30.34,30.09,7,0,7,0.00
2013-9-20,76.9,67.9,60.1,71.0,66.0,58.2,100,94,75,30.15,29.80,5,0,5,0.00
2013-9-21,73.6,73.6,73.6,69.5,69.5,69.5,87,87,87,29.88,29.69,0,0,0,0.00
2013-9-22,73.6,61.5,50.8,69.5,56.5,47.1,99,84,76,30.19,29.86,9,1,9,0.00
2013-9-23,56.7,54.8,50.7,48.4,47.1,44.0,85,75,68,30.34,30.17,7,2,7,0.00
2013-9-24,65.1,58.8,43.1,54.2,49.9,34.2,100,73,59,30.43,30.06,10,1,10,0.00
2013-9-25,69.6,63.4,45.8,59.5,54.6,45.7,100,74,49,30.25,29.94,6,0,6,0.00
2013-9-26,69.6,64.2,42.8,59.1,56.4,42.6,100,77,55,30.36,30.03,7,0,7,0.00
2013-9-27,68.8,66.0,49.7,58.5,57.2,41.3,100,74,63,30.46,30.19,6,0,6,0.00
2013-9-28,70.7,65.9,51.1,60.3,56.7,50.8,100,73,65,30.51,30.24,6,0,7,0.00
2013-9-29,71.7,65.6,50.9,63.8,58.3,41.4,100,78,68,30.33,30.01,7,0,7,0.00
2013-9-30,72.7,67.2,47.3,64.8,61.4,43.2,100,82,71,30.28,29.97,5,0,5,0.00
2013-10-1,72.7,71.3,66.1,64.1,61.5,60.3,90,71,67,30.19,29.96,6,0,6,0.00
2013-10-2,74.2,72.5,69.4,67.4,62.2,60.9,90,70,67,30.19,30.01,6,0,6,0.00